GFSWCAN_sfc_temp_021.txt.gz
Temp
50 50 51 51 51 51 51 51 51 51 51 52 53 53 53 53 53 51 49 47 44 39 44 46 45 41 42 40 35 40 38 40 37 33 33 33 34 38 37 39 35 35 34 35 38 38 38 53 53 47 49 53 54 56
50 50 50 50 50 50 50 50 51 51 51 51 52 53 53 53 53 53 46 48 48 40 42 50 48 49 48 47 41 40 39 38 41 34 35 35 34 35 35 33 42 34 39 36 38 39 46 50 51 56 55 54 55 56
50 51 50 50 50 50 50 50 51 51 51 51 52 53 53 53 53 52 50 47 45 40 44 44 46 53 51 49 49 37 42 43 43 43 38 36 33 36 32 33 33 38 42 38 39 42 45 51 54 54 55 55 58 60
50 50 50 50 50 50 50 50 50 51 51 51 52 53 53 53 53 52 51 51 46 41 36 44 53 51 55 50 46 45 43 44 44 43 40 40 36 41 35 36 36 40 43 40 40 45 46 50 51 53 53 57 60 62
49 50 50 50 50 50 50 50 50 50 51 51 53 53 53 53 52 52 50 51 50 42 37 41 50 52 55 51 47 46 43 42 42 40 42 41 44 41 43 41 35 41 39 40 40 46 43 44 51 53 52 55 59 60
49 50 50 50 50 50 50 50 50 51 51 52 53 53 52 52 51 49 45 48 48 46 39 35 51 48 52 54 50 47 47 44 44 43 46 47 47 44 40 40 40 44 45 47 44 50 47 49 52 55 54 57 61 61
49 50 50 50 50 50 50 50 50 51 51 51 52 52 51 51 49 49 49 51 48 49 40 37 40 51 51 51 49 48 47 47 46 45 45 45 46 46 44 39 45 47 49 49 51 50 49 51 48 52 55 58 61 64
49 49 50 50 49 50 50 50 50 50 51 51 51 51 51 50 50 51 53 50 51 49 45 35 38 44 50 44 42 49 47 47 47 46 46 42 46 46 40 45 46 47 47 49 50 51 50 51 51 53 57 58 58 60
49 49 49 50 49 49 49 50 50 50 51 51 51 51 50 49 48 49 52 51 52 48 41 39 33 33 49 46 45 46 45 41 47 39 40 41 36 35 38 39 40 42 42 45 49 50 51 51 52 53 53 55 54 57
49 49 50 50 50 49 49 49 50 50 50 50 51 50 45 48 51 53 48 45 44 44 43 38 43 36 42 42 42 40 41 38 36 38 42 35 36 41 42 42 43 45 46 48 44 44 47 48 51 51 51 53 55 57
49 49 50 50 50 49 49 49 49 50 49 47 42 43 47 50 48 45 42 40 42 40 44 44 43 39 44 38 37 41 38 39 35 38 36 36 35 40 45 44 46 47 48 48 49 49 50 51 51 51 53 53 55 56
49 49 49 49 49 49 49 49 49 47 46 46 44 45 44 44 43 40 39 40 40 42 45 42 44 43 42 44 40 42 37 39 31 41 37 35 40 47 45 44 46 47 48 48 49 50 52 53 54 54 54 55 55 57
49 49 49 49 49 49 49 49 50 49 48 47 42 40 41 42 35 37 35 39 39 45 47 47 43 44 41 42 38 39 32 33 39 37 36 38 46 49 48 46 47 49 52 50 49 51 52 53 55 55 54 56 58 58
48 48 49 49 49 49 50 49 49 48 44 40 39 34 37 37 38 40 41 43 46 46 47 44 44 42 42 40 41 33 37 35 32 31 34 43 48 49 49 50 49 49 50 48 48 49 49 50 52 56 56 57 56 56
48 48 49 48 49 49 49 49 48 47 41 38 41 35 37 43 45 46 47 46 48 47 46 43 43 43 40 39 40 36 33 30 31 34 41 47 49 48 48 48 49 50 51 50 50 48 49 50 50 51 55 57 57 57
48 48 47 47 48 48 48 48 46 45 42 40 40 39 42 41 45 45 46 47 50 47 45 45 42 39 37 37 32 31 30 28 36 36 46 48 48 48 48 49 50 51 51 51 52 52 52 51 48 49 51 53 56 56
47 44 47 47 47 47 48 44 44 43 42 42 41 46 46 46 46 49 49 50 50 49 45 44 40 38 37 35 31 34 31 38 43 47 48 48 47 48 49 50 51 51 51 51 51 52 50 50 51 51 50 50 52 54
44 48 48 47 46 46 44 45 42 42 40 44 42 47 44 48 48 49 49 49 49 49 46 45 44 39 35 32 34 37 39 43 46 46 48 49 49 50 50 50 52 51 51 51 51 51 52 51 48 48 51 50 51 51
46 46 47 47 45 41 38 43 44 37 41 46 46 46 46 48 49 51 52 50 51 51 49 45 43 41 41 42 45 48 46 45 47 49 49 50 50 50 50 51 52 52 51 51 51 51 51 51 50 51 52 50 47 48
47 46 47 47 46 39 39 41 46 40 38 45 46 45 46 48 50 49 50 48 48 48 44 41 45 48 50 50 49 51 53 49 48 50 51 53 54 51 52 51 51 51 53 53 54 46 51 50 50 50 52 50 48 46
44 46 46 45 42 40 40 41 41 41 43 42 46 46 46 46 46 46 47 48 45 45 44 49 52 55 55 52 53 52 52 51 51 51 51 52 55 54 54 55 53 53 52 52 52 52 50 49 48 48 51 47 51 48
43 45 42 45 39 39 37 42 40 43 40 43 43 46 43 41 44 47 47 44 46 50 50 53 54 55 54 51 51 51 54 53 53 52 43 47 52 54 54 54 53 52 53 53 52 52 53 51 47 48 47 47 47 47
43 41 38 38 35 35 36 44 38 41 39 41 42 41 40 40 45 46 42 46 50 53 55 54 55 55 55 55 53 53 53 53 53 53 52 54 53 53 53 54 54 52 52 54 53 53 52 42 47 47 46 47 48 48
42 37 34 33 33 32 39 36 39 39 39 38 38 39 41 42 44 42 40 47 53 51 50 51 52 50 49 50 51 53 54 53 53 51 51 51 52 53 54 55 55 55 53 53 54 53 53 52 44 46 46 47 44 44
33 31 32 30 34 33 33 35 36 35 36 39 37 39 40 42 39 40 41 48 51 51 52 50 51 52 53 53 51 51 52 54 51 50 52 53 53 53 53 53 54 53 53 52 51 52 51 51 50 48 46 42 41 44
28 32 31 32 32 32 34 33 35 37 38 38 38 41 39 39 37 38 42 43 45 45 45 45 47 48 49 51 50 50 51 53 52 51 53 53 53 52 51 50 51 53 53 52 51 51 50 48 47 46 43 41 37 41
27 27 33 39 37 37 35 37 38 35 35 35 39 37 37 34 35 42 45 46 45 47 49 49 48 49 50 51 52 53 55 53 55 55 52 51 51 51 52 51 49 51 50 49 49 50 48 47 46 43 41 41 40 40
32 34 30 34 33 36 34 35 34 34 38 42 40 36 36 35 37 46 48 50 49 50 51 52 50 50 52 54 55 52 50 51 50 50 50 49 49 50 50 52 51 34 49 49 48 49 47 46 44 42 40 39 40 41
30 33 35 30 33 33 34 35 37 42 45 42 39 39 41 46 48 49 51 52 52 51 50 50 51 50 50 49 50 52 51 51 50 46 46 46 45 47 50 51 51 51 49 44 32 39 43 44 43 42 41 40 40 41
31 35 31 32 31 32 38 40 40 44 46 46 47 45 45 46 49 47 47 47 47 47 49 49 49 48 48 49 44 42 45 48 49 50 48 48 48 50 50 50 50 51 50 49 47 44 34 42 39 43 41 40 37 36
37 34 32 33 33 39 41 44 44 44 43 43 44 41 42 45 45 42 41 42 44 46 47 47 47 48 47 44 44 42 41 45 47 48 49 48 49 48 48 48 50 50 49 47 46 44 43 42 40 38 37 36 35 34
34 33 33 30 32 39 41 39 39 38 40 39 39 42 42 41 38 35 37 37 38 37 36 40 42 43 44 44 44 42 37 43 43 43 43 44 45 45 46 48 48 48 46 44 43 42 41 38 36 36 35 34 34 34
32 34 33 33 31 33 38 37 36 35 36 35 38 41 39 35 31 32 36 36 35 35 34 36 38 39 40 41 39 37 36 35 32 30 30 31 31 35 43 44 44 44 42 40 39 39 38 37 35 35 35 34 33 32

GFSWCAN_sfc_temp_024.txt.gz
Temp
50 51 51 51 51 51 51 51 51 51 51 52 52 53 53 54 53 55 55 55 47 41 47 51 49 43 44 43 36 44 43 43 40 34 35 35 35 41 39 37 37 36 37 37 39 43 40 57 59 54 53 60 62 63
50 51 51 50 51 51 50 50 51 51 51 52 52 53 53 54 53 54 51 57 52 42 48 55 55 55 53 52 43 42 40 39 40 37 38 35 34 37 39 34 45 37 39 38 40 38 47 57 55 60 61 59 62 63
51 51 50 50 50 50 50 50 51 51 51 51 52 52 53 54 53 53 55 54 49 43 49 56 55 58 57 53 50 36 41 45 43 47 39 38 34 35 33 35 35 39 43 40 41 44 45 51 58 60 61 60 63 67
50 50 50 50 50 50 50 50 50 51 51 51 52 52 53 53 53 53 56 58 52 46 37 54 63 58 60 52 47 46 43 45 45 47 42 42 39 42 37 37 38 43 44 42 44 46 47 51 52 57 58 60 62 68
50 50 50 50 50 50 50 50 50 50 51 51 52 53 53 53 52 53 58 61 58 45 41 49 56 61 61 54 50 47 44 42 43 44 44 48 50 46 47 41 38 41 39 38 39 47 44 45 53 55 56 57 59 65
50 50 50 50 50 50 50 50 50 50 51 52 52 52 52 52 52 56 54 59 59 51 40 37 60 57 61 59 55 53 51 48 49 53 52 55 55 50 46 47 43 51 52 52 47 55 56 55 57 57 54 57 61 65
50 50 50 50 50 50 50 50 50 51 51 51 51 51 51 52 55 57 55 57 53 52 41 42 52 61 59 59 60 56 53 57 55 55 52 53 51 53 48 39 46 50 50 52 57 57 54 58 56 58 57 60 62 67
49 50 50 50 50 50 50 50 50 50 50 51 51 51 51 51 52 56 59 51 53 51 51 39 47 53 58 51 52 61 54 56 54 51 52 50 50 51 42 42 43 48 47 51 54 55 57 59 60 61 61 61 61 63
49 50 50 50 50 50 50 50 50 50 50 50 51 52 56 57 59 56 53 52 55 52 44 47 37 36 59 50 51 57 58 46 57 45 42 44 40 37 38 39 41 44 44 46 50 53 57 57 59 60 61 61 59 61
49 50 50 50 50 50 50 50 50 50 50 51 56 57 54 57 52 52 49 46 46 50 49 43 51 41 50 48 48 48 56 53 45 47 48 40 42 47 44 44 46 46 47 48 44 46 52 54 57 59 60 62 61 62
49 50 50 50 50 50 50 50 50 50 53 58 54 54 54 54 54 52 46 44 48 44 49 50 52 44 51 41 41 49 46 53 44 46 44 46 43 48 51 52 53 53 50 49 49 50 52 55 54 57 60 62 63 63
49 49 49 49 50 50 50 50 49 53 54 50 49 50 47 45 50 46 47 50 47 48 53 52 54 52 49 52 43 49 42 49 40 53 45 41 49 54 55 55 57 55 54 50 50 50 54 56 57 58 60 62 63 64
49 49 49 49 49 50 50 49 50 49 50 52 42 39 42 49 37 42 40 46 47 55 57 57 51 55 48 50 46 45 34 38 48 43 44 48 54 57 56 56 57 59 59 57 51 51 52 54 57 58 58 61 63 64
48 49 49 49 49 49 49 49 49 50 50 46 41 35 42 43 46 48 50 55 59 58 58 57 55 50 50 45 49 35 47 44 37 34 38 53 54 56 57 59 57 57 58 58 58 56 55 53 51 55 57 56 57 61
48 48 48 49 49 49 49 49 49 52 50 44 44 36 44 53 57 58 60 58 59 62 58 55 54 53 48 45 47 43 39 34 36 37 47 53 55 56 56 57 57 57 58 58 59 57 52 54 55 56 58 56 56 58
47 48 52 48 48 48 48 51 54 52 47 43 46 45 52 51 55 56 56 57 63 60 60 57 52 46 45 45 36 34 33 31 35 42 55 56 55 56 56 57 57 59 58 58 59 58 56 52 53 56 56 53 53 53
46 47 49 48 48 48 49 50 52 43 43 42 44 54 54 55 55 58 60 60 63 57 52 56 44 43 49 43 37 38 34 37 49 57 59 56 55 56 57 58 58 58 58 59 58 59 56 57 56 57 53 52 54 56
46 51 49 48 47 46 52 51 49 46 41 47 47 54 55 56 57 59 60 61 58 57 56 50 57 45 39 35 40 41 45 54 58 58 59 59 57 58 59 58 59 59 59 58 58 59 59 55 53 53 56 56 53 53
47 49 48 48 46 43 40 48 50 43 45 52 55 57 56 56 59 61 61 62 60 62 60 55 49 47 48 54 54 57 59 56 56 59 60 58 58 59 59 59 59 59 59 59 59 59 59 55 53 54 55 57 53 52
46 47 47 47 46 40 41 46 53 45 42 52 55 53 55 56 59 59 60 59 56 55 52 48 50 55 58 60 62 61 62 64 60 58 59 59 61 59 58 60 62 60 61 61 62 52 60 59 55 52 53 54 52 48
47 50 48 50 44 41 38 46 47 48 50 48 54 55 55 57 54 54 55 59 53 52 50 55 57 62 64 65 66 65 64 63 61 61 61 61 62 63 61 62 62 64 61 61 60 60 57 57 51 53 53 52 54 53
46 46 45 46 40 39 38 48 47 51 48 50 51 54 50 49 51 54 58 52 52 57 59 60 61 63 63 62 63 62 65 64 63 62 44 50 60 60 60 63 63 61 62 62 61 60 60 59 53 58 57 55 54 53
46 45 41 40 35 35 37 49 42 47 43 48 51 47 49 49 55 57 49 54 59 64 64 62 62 63 63 65 65 64 63 62 63 62 62 62 64 63 64 63 65 61 60 61 62 61 60 45 53 57 59 57 55 51
44 39 34 34 34 33 41 38 40 42 46 44 44 44 48 51 55 49 46 52 60 64 62 60 61 60 61 59 61 62 64 64 64 64 63 62 61 58 62 65 65 65 62 61 59 59 61 60 49 58 56 53 51 48
32 33 32 30 34 33 34 38 39 40 40 44 42 44 47 53 45 46 45 53 58 57 57 58 59 60 59 61 62 64 65 65 62 57 60 62 64 62 61 64 63 63 64 60 58 59 59 58 57 56 53 49 45 45
28 34 31 33 33 34 39 37 40 41 43 42 43 48 51 45 41 41 49 55 55 55 54 55 56 56 59 61 60 62 61 64 64 61 62 64 63 62 61 61 60 58 64 63 60 57 56 56 54 52 51 47 39 43
27 30 37 45 41 39 37 42 44 41 40 39 43 43 41 34 39 49 52 56 56 57 58 59 58 57 57 59 63 64 65 64 63 63 64 64 64 64 64 61 57 58 61 60 60 58 55 55 53 51 51 48 44 43
34 40 35 39 40 40 35 37 39 38 42 47 46 39 36 39 43 54 56 58 58 58 58 60 61 60 59 61 64 63 63 63 60 61 61 60 60 61 61 61 60 35 58 58 58 59 57 55 53 51 49 48 47 44
32 40 42 36 39 40 39 38 40 46 50 49 42 41 44 51 54 53 56 59 58 57 55 56 57 59 60 62 63 64 63 61 57 53 52 53 53 55 60 59 57 59 57 53 31 41 49 52 52 51 49 49 48 46
36 42 36 36 34 34 41 45 44 50 50 49 50 50 49 51 53 55 54 53 52 52 53 55 56 56 56 57 56 54 60 62 63 60 57 56 57 60 59 59 58 59 57 56 54 49 32 46 43 52 49 48 45 42
42 41 35 34 35 42 46 48 49 50 50 49 50 46 45 47 43 40 38 40 47 45 44 44 50 56 55 54 54 53 52 57 58 57 57 61 60 58 58 58 59 59 57 56 54 53 52 51 49 46 44 43 42 41
39 36 35 31 34 43 47 44 43 43 44 43 43 45 45 39 36 34 35 35 36 37 35 35 37 39 44 46 48 51 40 53 51 51 53 55 55 55 56 57 57 57 55 53 52 50 48 46 43 43 42 41 41 41
36 37 37 34 34 34 39 39 38 39 42 40 42 44 42 37 29 33 37 36 34 33 33 36 38 41 42 40 40 41 40 43 35 31 33 32 33 41 51 50 50 52 50 49 48 47 45 44 43 42 41 40 39 38

GFSWCAN_sfc_temp_030.txt.gz
Temp
51 51 52 52 52 52 52 52 52 52 52 52 52 53 53 53 54 54 54 58 49 45 51 55 57 50 52 45 37 41 40 46 45 38 39 36 34 41 40 38 36 37 37 38 42 38 31 49 53 46 48 54 61 66
51 51 51 52 52 52 52 51 52 52 52 52 52 53 53 53 54 54 49 60 55 46 49 57 58 62 60 55 44 41 38 41 43 37 42 39 35 37 38 33 44 36 38 35 38 36 44 47 49 55 58 60 61 65
51 51 51 51 51 51 51 51 51 52 52 52 52 52 53 53 54 53 52 56 51 47 55 60 57 65 66 62 61 41 42 44 43 47 41 41 34 39 34 35 36 41 45 39 39 42 44 47 53 57 61 61 64 67
51 51 51 51 51 51 51 51 51 52 52 52 52 52 53 53 53 52 51 59 52 48 42 56 70 60 69 65 59 56 51 49 47 47 42 42 39 49 38 41 42 43 48 42 40 46 47 48 51 56 60 64 65 68
50 50 51 51 51 51 51 51 51 51 52 52 53 53 53 53 52 54 57 61 59 49 43 51 60 67 69 64 58 55 51 45 44 47 43 43 54 53 48 41 41 47 45 40 39 49 49 51 57 61 61 63 65 66
50 50 50 51 51 51 51 51 51 51 52 53 53 53 52 52 52 56 51 63 65 56 45 43 64 64 65 65 60 53 53 48 49 48 46 51 58 54 40 36 47 51 53 53 49 56 57 58 60 61 61 63 67 67
50 50 50 50 50 51 51 51 51 51 52 52 52 52 51 51 53 56 53 54 59 60 46 44 53 63 63 63 61 59 57 54 53 50 49 52 53 53 46 40 48 50 51 52 55 54 54 57 56 61 64 66 67 70
49 50 50 50 50 50 51 51 51 51 51 51 51 51 51 52 52 54 61 56 60 56 50 40 47 56 65 58 54 63 55 54 55 53 57 52 55 55 44 49 52 49 48 51 53 56 56 59 61 62 66 67 65 66
49 49 49 49 50 50 50 51 51 51 51 51 51 51 55 55 54 53 55 54 62 55 43 45 42 39 63 57 59 59 60 50 61 51 54 54 47 43 47 50 47 53 48 46 51 55 55 56 61 61 62 63 63 65
49 49 49 49 50 50 50 51 51 51 51 51 54 57 50 53 53 54 51 48 45 46 47 47 56 50 61 57 54 52 57 51 42 51 59 48 45 53 56 55 56 51 48 53 47 48 52 51 55 57 59 63 64 66
48 48 49 49 50 50 50 50 50 50 52 60 54 53 60 57 61 56 49 43 46 43 51 56 57 53 62 50 48 54 49 54 45 49 51 46 44 52 59 60 61 59 57 55 51 52 54 56 55 57 58 61 63 63
47 48 48 48 49 49 50 50 50 51 54 49 48 52 57 51 50 47 44 51 49 48 55 57 52 56 59 58 49 50 45 51 44 57 50 42 50 58 59 60 61 62 62 59 58 51 54 56 54 57 57 57 58 62
47 48 48 48 48 49 49 50 50 50 50 50 45 42 42 47 37 41 41 50 51 58 61 61 55 58 58 57 47 46 40 40 52 45 44 47 56 59 59 62 62 64 64 63 61 59 57 57 56 56 56 58 59 60
47 47 48 48 48 49 50 50 50 51 49 46 42 35 42 43 49 50 53 57 63 63 63 63 60 56 59 52 51 40 49 48 39 38 41 50 54 59 60 63 61 61 62 62 63 59 57 57 54 58 58 57 55 55
47 47 48 48 49 50 50 50 49 51 50 48 49 38 46 55 61 63 65 63 66 66 63 60 60 59 52 49 51 47 41 36 39 38 47 54 59 58 57 58 61 61 62 61 63 62 61 57 57 58 57 58 58 57
47 47 49 50 49 49 49 52 54 52 48 51 51 49 57 57 60 62 63 61 67 65 65 61 55 51 48 50 45 42 38 34 38 48 56 57 60 58 57 61 61 63 62 62 63 63 61 60 59 55 57 58 58 57
46 48 50 49 48 48 51 50 54 48 50 48 50 58 57 57 56 61 63 63 69 63 55 55 45 46 54 45 42 44 37 42 52 57 61 59 60 60 59 61 63 60 62 62 63 63 62 62 61 59 53 56 58 59
48 53 49 48 48 48 51 49 51 52 43 49 48 54 58 61 60 62 65 67 64 62 60 54 58 49 43 41 43 46 51 57 60 61 62 62 63 63 63 61 64 62 61 61 63 63 61 60 57 54 54 57 58 59
48 49 47 46 46 43 43 48 49 42 49 55 59 61 61 62 65 67 66 67 67 67 62 58 52 49 51 57 56 58 58 59 57 56 57 64 64 63 64 65 64 62 62 62 63 64 61 59 59 58 58 57 56 57
46 47 47 47 47 43 40 46 54 46 47 56 59 58 60 61 65 65 65 65 63 60 55 53 54 58 59 62 64 63 64 63 61 57 60 62 61 61 63 64 62 64 64 65 64 55 63 61 62 61 59 55 56 55
48 49 51 50 48 46 47 48 48 51 53 52 57 58 58 62 60 60 61 65 59 55 52 58 61 64 67 67 69 67 66 66 63 63 61 61 57 61 52 63 65 65 64 63 63 62 58 59 61 61 60 59 58 56
50 50 50 51 45 46 44 50 48 54 52 52 53 55 53 51 54 58 63 59 58 59 63 63 64 64 65 65 67 67 67 68 68 65 55 55 61 61 60 62 59 61 62 62 63 62 61 61 63 64 61 59 56 52
48 47 45 45 41 39 38 52 44 48 44 49 53 50 51 53 58 64 56 60 62 67 68 67 67 67 65 67 68 68 68 67 66 66 66 65 66 65 64 62 62 63 62 61 64 63 61 47 57 61 62 60 56 56
47 39 37 38 39 35 46 43 46 44 47 45 44 44 49 52 59 54 51 57 63 67 67 64 63 61 64 66 65 66 67 68 67 67 67 62 63 63 64 60 58 65 66 66 64 62 62 60 51 60 60 58 56 54
33 33 36 31 41 36 37 40 42 42 40 44 43 45 48 54 48 49 50 56 62 62 63 64 64 63 62 64 65 66 69 69 65 63 66 66 63 57 59 58 61 67 67 65 62 61 60 60 60 59 56 54 53 51
27 36 33 38 38 37 38 36 40 42 44 43 45 50 51 47 44 44 52 58 57 61 61 59 59 61 63 64 61 62 65 69 67 64 65 67 63 59 58 56 58 62 67 66 64 61 60 60 58 57 51 49 39 50
27 31 41 49 45 44 40 42 44 41 39 38 43 44 42 36 40 49 50 44 46 58 64 64 64 64 62 63 64 66 67 67 65 63 65 67 66 63 62 62 61 62 66 66 64 63 61 59 57 58 57 56 53 51
36 40 34 40 41 43 37 37 38 37 39 45 45 40 35 34 34 42 46 45 44 48 49 60 65 65 64 64 65 66 67 67 67 66 66 63 66 64 67 66 63 42 64 64 63 63 62 61 59 57 56 55 53 52
37 41 41 35 37 38 39 38 40 45 49 47 40 39 40 47 48 49 47 48 47 46 49 52 59 62 63 64 64 65 65 64 58 54 55 53 53 59 66 63 63 64 62 56 34 47 55 58 59 58 57 55 54 52
38 44 36 34 33 33 40 46 46 50 52 53 53 52 51 51 47 49 49 51 51 51 54 56 56 54 53 54 55 55 61 51 49 48 46 55 56 63 65 64 63 64 63 60 58 53 35 50 46 56 55 54 50 47
43 41 36 37 37 43 46 49 51 51 51 50 53 50 49 47 43 42 40 43 45 45 45 44 41 39 41 40 45 48 46 45 48 45 45 52 54 58 61 60 60 58 62 61 59 57 55 54 56 53 51 48 47 46
39 37 36 33 36 44 46 43 42 42 45 48 47 51 51 50 34 34 37 38 37 34 34 36 36 36 37 37 41 45 37 40 43 42 43 45 46 50 59 58 53 50 49 59 58 56 55 52 49 49 48 47 47 46
39 40 40 38 37 38 43 39 39 40 42 41 45 45 35 33 29 33 39 38 35 34 34 36 37 38 37 37 38 39 38 40 37 33 33 33 34 38 52 55 54 54 54 54 53 53 51 49 49 48 47 45 44 42

GFSWCAN_sfc_temp_033.txt.gz
Temp
51 51 52 52 52 52 52 52 52 52 53 53 53 53 53 53 53 50 48 52 45 43 46 49 49 44 44 43 37 40 39 39 36 31 32 33 32 36 36 37 36 34 33 33 34 35 29 45 47 40 44 49 52 59
51 51 51 51 51 51 51 51 51 52 52 52 53 53 53 53 53 53 45 54 53 45 46 52 53 55 53 50 43 41 38 39 38 36 35 36 33 34 34 30 41 34 36 33 34 34 43 46 44 48 49 49 57 59
51 51 51 51 51 51 51 51 52 52 52 52 52 53 53 53 53 52 47 50 48 44 46 49 52 59 60 57 53 39 42 43 42 43 38 38 34 37 32 33 36 41 45 38 38 42 43 45 48 49 51 57 60 62
51 51 51 51 51 51 51 51 52 52 52 52 53 53 53 53 53 52 47 51 49 46 38 46 62 57 64 58 53 52 47 48 45 44 40 38 35 43 37 38 38 41 44 41 40 45 46 48 48 50 53 59 62 62
50 50 50 50 50 51 51 51 51 52 52 52 53 53 53 53 52 50 50 52 53 46 39 43 52 61 59 57 53 50 48 45 42 41 40 38 43 41 42 40 38 44 41 36 37 45 45 48 51 53 54 58 61 62
49 49 50 50 50 51 51 50 51 52 52 52 53 53 53 52 51 49 48 54 56 55 42 37 53 54 59 59 54 50 50 45 43 45 43 43 48 42 37 35 44 46 48 46 43 50 50 54 57 59 56 59 62 63
48 49 49 49 50 50 50 50 51 51 52 52 52 52 52 51 49 46 47 52 54 55 44 40 43 58 60 58 55 51 51 47 46 46 42 43 44 46 39 36 46 47 48 48 51 49 47 52 51 57 59 61 61 66
48 49 49 49 50 49 50 50 51 51 51 51 51 51 51 51 50 47 54 54 54 50 47 37 39 46 58 49 48 55 48 48 46 44 46 44 46 44 36 43 45 50 49 49 51 52 51 53 55 59 61 61 59 62
48 48 49 49 49 49 50 50 51 51 50 51 51 51 51 50 50 51 56 55 54 49 41 42 35 35 56 50 51 49 52 42 52 44 45 45 40 34 42 44 45 43 44 47 51 53 53 53 56 57 56 58 59 59
48 48 48 49 49 49 49 50 50 50 50 51 51 51 46 49 54 54 50 46 46 44 45 40 48 40 50 46 46 45 47 42 38 43 49 40 39 47 49 49 50 48 48 49 45 45 49 51 53 54 55 57 59 60
47 48 48 48 49 49 49 49 50 50 51 53 48 46 51 56 52 48 44 41 43 40 44 45 47 44 52 43 41 45 41 44 37 41 43 38 37 46 53 52 52 52 51 50 48 48 50 50 51 54 55 57 57 57
47 47 48 48 48 48 49 49 49 48 48 45 44 48 50 48 46 43 41 45 44 43 48 47 50 48 47 50 41 42 40 43 37 47 42 35 45 51 54 55 55 55 52 52 51 51 53 53 54 54 55 53 54 55
47 47 48 48 48 49 49 49 50 50 49 49 43 42 41 43 35 38 35 43 44 53 53 53 48 49 50 48 42 39 36 36 44 37 37 40 50 53 53 58 56 57 56 54 51 52 51 52 53 54 54 55 56 55
47 47 47 48 48 49 50 50 50 49 46 43 41 34 37 37 41 43 45 49 56 57 55 54 50 48 47 44 44 35 43 40 33 31 34 43 46 52 56 57 55 55 55 55 55 54 53 54 54 54 53 54 53 51
47 47 47 49 50 50 49 49 49 49 44 42 45 36 41 48 52 55 57 56 58 58 55 51 51 50 44 43 45 41 36 33 32 31 39 43 47 50 53 55 56 54 54 54 57 54 54 53 53 53 55 54 53 51
47 47 48 49 48 48 48 49 50 49 45 44 46 43 49 49 51 55 56 53 59 58 56 54 49 45 43 41 39 37 33 29 33 39 47 49 49 52 51 55 55 57 55 54 57 57 54 53 52 52 54 55 52 51
46 46 50 48 48 47 48 47 49 44 43 45 43 51 50 50 49 52 55 56 55 53 48 50 44 43 47 40 37 37 33 35 43 47 50 52 51 54 54 56 57 56 56 55 56 56 55 53 52 52 48 50 53 51
44 49 49 48 47 46 50 49 46 47 41 44 41 46 50 52 51 53 56 59 56 54 54 47 50 43 38 37 36 39 43 48 50 50 50 53 52 55 57 55 59 57 55 55 55 54 52 51 49 46 48 51 50 50
45 46 46 47 46 41 41 46 46 39 44 48 50 52 53 54 57 59 59 59 56 59 53 51 46 42 42 49 49 50 49 51 49 51 50 52 55 56 58 58 59 55 54 54 53 52 51 51 50 49 48 48 47 46
46 47 47 48 47 41 40 42 51 44 41 48 50 48 50 52 57 57 57 57 54 54 51 48 49 51 52 53 53 53 54 54 53 50 49 50 56 56 55 55 54 54 54 55 54 52 52 52 51 49 49 47 46 44
46 49 49 49 46 43 42 44 45 47 48 46 51 50 50 54 52 52 52 56 54 50 48 53 54 57 59 58 59 57 58 56 51 51 53 49 50 53 53 56 55 54 55 51 52 50 50 49 50 50 50 47 47 46
45 48 45 47 42 43 41 46 44 48 45 46 46 47 45 43 46 50 54 50 50 52 53 56 58 59 59 59 58 59 60 60 58 56 51 51 52 50 52 55 52 53 53 52 53 53 51 51 51 53 50 48 46 45
45 45 41 43 38 38 37 48 40 43 39 44 46 43 44 44 50 56 49 53 54 59 61 61 62 63 61 62 62 62 61 60 57 57 57 56 58 58 57 54 52 51 51 52 55 53 51 46 47 53 51 49 47 45
47 38 35 35 35 32 43 40 43 42 42 39 39 39 43 46 52 47 45 50 56 60 60 58 59 56 58 58 57 58 59 59 57 57 60 57 55 55 55 54 56 54 57 55 54 53 52 52 49 52 51 49 47 44
32 31 32 28 39 34 35 37 39 38 36 39 39 39 42 48 40 43 44 49 53 52 56 57 57 58 55 56 58 59 60 60 57 55 58 57 54 52 52 55 54 54 58 57 53 53 52 52 52 50 48 47 45 44
26 34 32 35 35 35 36 33 35 35 36 37 37 43 44 41 39 39 44 41 42 42 43 43 44 53 56 57 56 55 55 58 59 56 57 60 56 54 52 51 51 52 59 57 56 54 53 52 50 48 45 43 39 45
25 29 37 45 40 40 36 38 40 35 34 34 37 38 38 35 35 35 41 41 40 41 45 46 45 44 55 57 58 57 58 59 57 58 58 55 59 57 56 53 53 55 58 59 58 57 55 53 50 49 48 47 46 45
33 37 32 36 37 39 34 35 35 34 37 43 40 34 30 30 32 41 41 43 43 44 44 45 46 51 55 58 59 59 59 60 59 59 58 58 56 58 57 57 55 41 56 57 57 57 55 54 52 51 49 47 45 45
34 38 39 33 35 35 35 34 36 41 46 42 37 37 36 41 42 41 44 46 47 45 43 44 45 48 52 53 53 48 50 49 48 47 46 44 46 52 56 54 55 54 50 46 36 46 53 52 53 51 51 48 46 45
33 40 34 33 31 31 37 41 40 45 47 47 48 48 47 39 38 42 42 43 43 42 43 42 41 39 41 43 44 45 46 44 43 43 43 42 44 47 50 56 57 56 54 51 49 46 37 47 45 50 48 46 42 37
38 37 34 34 34 39 42 45 46 45 46 46 48 46 45 35 38 40 38 40 40 39 37 37 37 37 36 36 38 40 38 41 42 42 41 44 45 45 47 53 52 57 55 53 50 49 48 48 48 46 44 42 42 39
36 33 34 32 34 41 44 41 40 40 42 42 43 45 46 36 30 33 35 37 34 33 33 34 34 34 36 37 38 40 36 37 37 38 39 41 41 42 47 52 51 50 49 48 49 50 49 45 41 42 41 42 43 41
38 40 39 35 34 38 42 38 37 38 39 37 40 35 33 30 26 32 38 37 34 32 33 35 36 37 38 38 38 38 37 38 36 34 34 34 33 36 41 44 46 49 47 46 45 45 47 46 43 43 42 40 38 36

GFSWCAN_sfc_temp_036.txt.gz
Temp
51 51 51 52 52 52 51 52 52 52 52 53 53 53 53 53 53 49 44 45 42 38 43 46 47 40 41 38 35 40 37 35 33 31 31 32 30 33 33 36 35 33 32 32 32 31 27 43 45 40 42 46 48 49
51 51 51 51 51 51 51 51 51 51 52 52 52 53 53 53 53 52 44 47 46 41 43 48 49 51 51 49 40 41 37 38 36 34 34 35 33 34 34 29 39 33 36 32 32 32 40 44 43 47 47 46 48 50
51 51 51 51 51 50 51 51 51 51 52 52 52 53 53 53 53 51 46 48 44 38 41 41 44 52 55 53 54 40 36 38 38 42 34 37 33 36 31 31 35 40 44 37 37 40 43 45 47 48 48 48 50 52
51 51 51 50 50 50 50 51 51 51 51 52 52 53 53 53 52 52 46 49 43 42 38 40 54 51 59 52 52 49 43 42 43 43 38 37 35 40 35 37 36 37 40 37 40 43 44 47 48 48 48 52 52 54
50 50 50 50 50 50 50 50 50 51 51 52 53 53 53 53 52 51 48 49 47 41 38 39 48 52 52 51 51 47 43 43 41 39 38 38 42 41 40 37 37 41 40 36 34 42 42 45 49 51 49 49 51 52
49 49 49 50 50 50 50 50 50 50 51 52 53 53 52 52 51 48 41 47 49 49 41 36 44 48 50 52 49 47 45 44 43 41 42 43 47 41 34 32 40 43 47 47 43 48 47 50 52 55 51 50 52 56
49 49 49 49 50 49 50 50 50 51 51 51 51 51 51 51 48 43 42 47 51 50 42 37 35 48 53 50 49 43 45 43 44 44 40 39 40 40 35 33 41 45 48 49 51 48 46 49 48 53 56 55 57 61
48 48 49 49 49 49 49 50 50 50 50 51 51 51 51 51 49 45 46 50 51 47 44 35 35 39 51 44 41 46 42 43 42 40 40 39 40 38 33 40 43 44 45 46 49 50 50 52 55 55 56 58 58 57
48 48 48 48 48 49 49 49 49 50 50 50 50 51 47 44 44 48 56 54 52 46 39 39 29 29 50 46 48 43 42 35 46 39 40 43 35 31 39 42 44 43 41 43 49 51 51 52 51 53 52 53 53 54
47 48 48 48 48 48 49 49 49 49 50 50 47 45 44 47 55 53 48 44 43 44 43 39 39 35 44 42 41 39 39 37 34 39 44 37 34 42 45 46 46 46 46 45 42 44 45 46 49 51 50 52 54 55
47 47 48 48 48 49 49 49 49 49 51 43 39 41 46 52 48 44 41 38 39 38 39 38 40 37 45 38 39 40 35 36 31 37 40 36 33 44 48 48 51 48 47 47 47 50 47 49 48 47 49 51 51 53
47 47 47 48 48 48 49 49 49 46 43 43 43 46 44 42 41 40 38 41 40 38 40 38 40 41 43 44 37 38 34 37 32 42 37 33 40 48 50 53 50 48 48 48 48 49 51 51 49 49 49 49 50 51
46 47 47 47 48 48 49 49 50 49 47 47 42 40 39 40 33 35 30 39 40 44 44 44 43 44 43 44 38 35 31 29 37 29 31 36 45 50 50 54 54 53 50 51 50 50 52 53 52 49 48 50 50 50
46 47 47 47 48 49 49 49 49 47 43 40 39 33 34 32 35 36 37 39 46 50 51 44 45 42 41 39 40 34 37 35 28 24 29 38 44 49 52 55 53 52 49 50 52 50 48 49 49 50 48 49 49 49
46 47 47 48 49 48 48 48 49 41 39 39 39 32 33 40 42 44 47 47 49 49 46 43 42 42 38 40 41 37 33 27 24 24 32 40 46 49 49 51 51 52 49 50 51 50 49 49 48 48 49 47 48 48
47 47 47 49 48 48 48 46 43 41 42 40 38 35 39 39 41 43 45 46 49 50 51 47 42 39 38 36 35 35 29 28 28 32 41 44 46 48 48 52 51 52 51 50 53 51 50 49 48 47 48 48 48 47
47 41 47 48 48 47 46 40 41 40 37 39 36 40 40 41 42 45 45 46 51 46 42 44 40 39 40 33 31 34 31 32 36 39 44 46 47 48 48 53 53 53 51 50 52 50 48 49 48 48 46 46 46 46
39 41 46 47 46 43 40 43 44 43 35 38 35 37 38 40 42 44 47 50 48 45 44 41 46 39 33 32 29 36 38 41 43 45 46 47 49 50 52 51 54 53 51 50 52 52 49 47 45 43 44 45 44 44
41 42 46 46 45 40 35 41 41 34 36 38 39 40 41 44 48 51 51 52 52 52 45 42 42 36 36 40 42 42 42 45 44 44 47 50 49 51 53 53 53 52 50 49 48 48 48 46 45 44 43 42 40 41
46 46 46 47 46 37 37 38 42 36 33 37 40 40 39 41 48 46 49 49 48 46 43 42 40 41 44 46 45 46 48 51 47 43 45 48 49 49 51 50 49 50 48 47 49 46 46 45 45 44 43 41 40 39
42 43 46 44 40 38 37 35 35 37 38 37 40 38 38 41 41 42 43 47 44 42 41 45 45 46 48 49 49 48 49 50 48 49 48 45 46 49 50 53 53 48 46 47 46 46 48 46 44 44 43 41 41 40
38 46 39 41 37 37 34 37 34 37 35 36 38 40 34 33 35 39 44 41 41 44 45 47 50 54 55 50 52 51 53 52 51 49 47 46 47 47 47 49 47 46 46 48 47 46 49 48 47 45 44 42 41 40
43 41 37 38 35 32 31 40 35 38 34 36 37 36 35 35 39 44 39 41 45 50 53 53 54 56 56 57 55 53 52 51 49 51 50 52 52 51 48 49 48 46 46 46 49 47 46 45 43 45 44 42 41 39
44 35 33 31 30 25 37 35 36 36 37 32 32 33 35 37 42 37 36 38 40 44 43 44 46 47 50 51 49 50 52 49 49 50 53 52 50 48 49 49 50 48 48 49 50 47 48 49 45 46 45 43 40 39
28 23 29 20 30 30 31 33 34 32 32 34 33 33 34 37 31 35 36 37 40 40 41 44 43 43 43 46 46 47 50 49 47 46 48 51 51 47 46 49 52 53 52 52 50 48 47 49 46 45 44 42 39 38
19 28 23 30 29 30 29 27 28 30 31 31 31 35 36 32 32 32 35 37 38 38 39 41 41 41 42 44 46 50 48 49 48 46 47 52 54 51 48 48 48 50 52 56 53 50 48 47 46 44 42 40 37 39
18 21 29 37 32 32 30 33 34 30 31 31 31 31 30 30 29 33 37 39 39 40 42 43 43 42 41 43 45 47 51 49 49 49 50 51 48 50 51 50 50 53 54 55 55 54 50 48 46 44 43 42 41 40
29 30 27 29 30 31 30 30 31 30 31 36 35 31 27 29 30 35 35 41 42 42 42 43 41 42 42 44 43 43 44 48 52 52 51 49 48 49 50 50 53 41 53 57 56 54 51 49 46 45 44 41 39 40
30 33 34 29 31 30 31 30 31 34 38 37 30 30 33 36 35 33 35 39 40 39 38 37 37 40 41 42 44 43 41 41 41 41 40 39 41 43 46 47 49 51 51 49 39 48 52 50 48 47 45 43 41 40
30 36 29 29 29 28 32 36 34 39 39 39 41 40 37 33 33 38 37 36 35 35 37 38 37 36 36 37 38 40 39 39 39 39 38 38 41 44 46 47 48 49 47 47 46 43 38 43 41 44 43 41 38 36
33 33 31 30 29 34 37 39 39 40 39 37 38 35 33 32 34 33 33 35 35 35 34 34 35 35 35 35 36 35 35 38 38 38 39 41 42 43 45 45 47 48 49 48 48 49 46 45 44 42 40 37 37 36
31 31 31 29 30 34 38 34 33 34 35 35 34 35 34 32 28 30 33 33 32 31 32 34 33 33 36 37 38 38 34 36 35 35 36 37 39 43 44 45 46 46 47 46 47 47 45 41 39 38 37 37 37 36
32 35 35 33 32 30 33 32 31 32 32 31 31 31 29 26 23 29 33 33 32 31 33 34 35 35 35 36 36 37 36 37 36 34 34 33 33 34 40 43 43 42 42 42 43 42 42 41 39 38 36 34 34 33

GFSWCAN_sfc_temp_042.txt.gz
Temp
51 51 51 52 52 51 51 51 51 51 51 51 51 51 52 53 53 49 47 46 42 38 40 44 42 37 37 36 33 37 36 35 32 30 31 30 30 33 32 35 33 32 30 30 31 29 25 39 37 35 40 46 46 47
51 51 51 51 51 51 51 50 50 51 51 51 52 52 53 52 53 52 44 47 47 41 40 48 47 48 47 45 40 40 37 38 38 34 33 33 27 33 33 29 38 29 34 31 31 31 38 40 38 42 43 45 46 46
51 51 51 50 50 50 50 50 50 51 51 51 51 52 52 52 53 51 45 47 43 39 40 37 37 44 47 47 50 37 35 41 40 43 38 36 31 36 31 33 35 36 41 36 36 38 40 43 44 46 47 46 48 49
50 50 50 50 50 50 50 50 50 50 51 51 51 51 52 52 52 52 45 47 44 41 34 36 48 43 51 47 45 48 42 43 44 42 38 36 34 39 35 37 36 38 41 38 38 42 43 44 45 45 47 49 49 52
49 49 49 49 49 49 49 49 49 49 50 51 52 52 52 52 52 50 48 49 49 41 35 36 43 46 47 47 46 47 45 43 41 38 37 36 40 40 41 38 34 40 39 36 35 42 41 42 46 47 48 48 49 50
49 49 49 49 49 48 49 49 49 49 50 51 51 51 51 51 51 45 41 46 49 46 37 33 40 43 45 45 47 44 45 43 43 40 40 40 44 41 37 31 37 40 45 45 42 47 46 48 48 50 49 49 50 50
48 48 48 48 48 48 48 48 49 49 50 50 50 50 50 50 46 42 41 45 50 47 38 36 34 46 48 44 44 43 46 44 43 42 41 36 40 42 36 29 39 41 43 45 49 47 45 48 46 49 50 50 51 51
47 47 48 48 48 48 48 48 49 49 50 50 50 51 51 50 48 44 48 50 49 43 42 36 34 36 46 41 39 43 41 43 41 42 42 38 38 35 32 37 40 42 43 46 47 48 48 50 50 49 50 50 49 48
47 47 48 48 48 48 48 49 50 50 50 51 51 51 47 45 42 45 53 51 50 43 38 37 30 27 42 41 44 43 44 40 45 40 38 41 37 30 36 39 39 40 39 41 44 47 47 47 47 47 48 48 47 48
47 47 48 48 47 48 48 49 49 50 50 49 44 46 42 45 52 51 47 43 41 42 43 38 40 32 39 36 36 39 39 36 34 38 43 38 33 40 42 42 43 43 44 43 41 41 42 43 44 45 45 47 47 47
47 47 47 47 47 48 48 49 49 49 47 37 33 39 42 49 44 43 39 38 37 36 37 38 40 39 41 33 33 39 36 34 34 34 39 37 33 38 44 45 45 45 45 44 43 48 47 45 43 43 45 46 47 46
47 46 46 47 47 48 48 49 49 40 37 38 40 44 43 39 37 37 36 39 36 33 38 38 38 38 38 39 38 38 34 34 31 39 35 32 35 43 46 47 45 46 45 45 44 45 46 46 45 44 44 44 46 47
46 46 46 47 47 48 49 49 49 48 45 41 40 38 38 38 31 32 28 35 35 40 44 43 40 40 38 38 37 31 31 30 34 27 29 32 38 43 45 48 48 46 46 46 45 45 46 45 45 43 43 44 45 47
46 47 47 47 47 48 48 48 48 45 36 36 36 30 32 30 32 30 32 36 42 45 44 44 42 41 40 35 35 32 35 30 23 23 27 34 39 44 47 49 46 45 46 46 47 47 45 44 43 43 42 43 43 43
47 47 47 47 47 48 47 47 47 38 35 33 37 28 31 34 35 38 43 43 45 46 45 43 42 42 38 38 36 32 31 25 24 25 28 35 41 44 45 47 47 45 45 45 46 46 44 44 42 41 42 42 43 44
46 46 44 47 47 47 47 45 41 37 37 36 34 32 36 35 33 36 39 38 42 42 43 43 40 37 36 35 32 32 27 21 26 28 36 38 42 44 44 47 48 47 46 45 46 46 45 44 42 41 41 41 41 43
45 36 45 46 46 46 46 41 36 35 34 35 33 35 35 32 33 34 36 37 40 38 36 40 34 35 38 33 31 29 28 29 34 37 38 40 43 44 45 47 49 48 46 45 46 45 43 43 43 41 38 39 40 40
37 38 45 45 45 42 40 38 37 35 34 34 31 31 33 34 34 36 37 38 38 39 42 40 41 36 34 32 32 36 39 39 39 41 42 42 45 45 47 46 49 49 46 46 46 45 43 42 40 38 38 39 39 38
39 40 45 46 45 39 33 34 39 32 34 32 33 34 35 35 37 41 41 41 42 44 40 40 36 36 36 39 40 42 41 41 42 42 43 46 46 46 47 47 48 47 45 45 44 43 43 42 40 39 38 38 36 36
45 45 45 46 44 34 32 31 38 32 29 32 34 34 35 36 38 38 38 38 40 41 39 38 37 39 38 42 45 44 44 43 43 42 42 44 45 46 46 46 46 46 45 45 45 42 42 40 40 39 38 37 36 35
42 39 44 40 35 34 32 30 29 30 31 30 35 34 34 36 34 35 35 38 35 35 37 39 38 41 42 43 46 45 45 44 43 44 48 44 44 44 45 45 46 45 45 45 45 43 42 43 40 40 38 37 36 36
37 44 40 39 32 32 30 32 30 31 29 31 31 35 32 31 32 35 37 35 34 38 40 40 42 43 43 42 44 47 49 48 46 45 43 43 45 43 44 44 44 43 45 47 47 46 44 42 42 41 39 37 37 36
42 41 37 35 31 28 26 33 30 34 30 32 33 32 33 33 35 38 33 35 38 43 43 43 44 45 43 45 46 46 46 44 43 43 44 44 48 48 46 45 46 45 44 45 47 45 44 40 39 40 39 38 37 36
42 35 31 30 31 26 31 30 33 32 32 28 28 29 33 33 38 33 30 35 38 41 40 40 42 41 43 43 42 42 43 44 42 43 45 43 43 46 46 46 47 47 49 48 46 45 43 43 40 40 40 38 37 35
28 22 29 18 27 27 28 29 27 27 27 30 29 29 32 37 32 31 31 34 36 37 38 38 38 38 37 39 40 41 43 43 40 40 43 45 43 42 42 44 46 46 48 46 45 45 45 43 42 41 40 38 36 35
21 25 23 28 25 25 24 24 25 26 27 29 30 34 34 31 29 28 30 30 33 36 36 36 35 36 36 38 37 38 40 42 42 42 43 44 45 44 42 43 43 44 49 51 49 47 45 45 43 41 40 37 35 36
20 19 27 31 29 30 28 28 28 25 27 28 30 31 29 26 25 28 33 32 32 34 37 37 37 36 36 38 40 40 41 43 43 45 46 46 45 45 44 43 43 45 49 51 51 50 47 45 43 43 41 39 39 38
29 29 26 28 30 31 26 27 28 28 29 31 31 28 26 26 24 29 32 34 34 36 37 38 38 37 38 38 40 39 38 40 43 45 46 45 45 46 46 47 47 38 47 49 50 51 49 48 46 44 42 40 38 39
27 29 29 27 28 27 28 28 29 30 32 29 28 28 29 29 30 30 32 33 36 35 34 34 36 37 38 38 38 39 37 35 34 34 34 35 38 41 45 46 46 46 45 44 38 43 49 49 48 46 44 42 40 39
27 29 26 28 27 27 31 33 31 35 34 34 35 31 29 29 31 33 33 33 32 33 34 34 34 34 34 34 33 35 36 34 33 32 32 33 35 39 42 42 43 43 44 45 45 42 35 42 40 43 41 39 37 35
30 30 29 27 27 31 36 36 37 38 34 35 35 32 28 29 31 32 31 31 33 35 33 32 32 33 32 32 31 31 30 33 32 33 33 34 36 37 38 40 42 41 42 43 42 43 45 44 43 41 40 38 36 35
29 29 29 30 28 31 33 32 31 32 33 31 28 33 31 28 25 26 30 29 29 29 30 31 30 30 32 33 33 32 31 31 31 30 31 32 32 34 37 38 40 39 39 41 44 44 43 43 40 40 39 38 36 36
28 29 31 31 26 29 30 31 31 27 28 25 26 28 26 23 21 27 31 31 29 28 28 29 31 33 31 31 31 31 31 31 31 30 30 30 31 30 32 34 36 36 36 35 36 40 41 40 38 38 37 36 35 35

GFSWCAN_sfc_temp_048.txt.gz
Temp
51 51 52 52 51 51 51 51 51 51 51 52 51 52 52 52 53 52 54 58 50 42 46 48 49 42 43 40 34 43 44 48 46 41 40 41 37 43 38 43 41 36 34 34 35 32 30 47 41 34 43 42 42 44
51 51 51 51 50 50 50 50 50 50 50 50 51 51 52 52 52 53 46 59 52 43 43 55 56 56 53 50 43 42 42 43 44 39 40 42 37 41 39 34 50 38 40 35 34 35 45 46 41 43 43 42 44 45
52 51 50 50 50 50 50 50 50 50 49 50 50 51 52 52 53 52 50 53 48 41 45 54 55 61 60 57 56 40 45 50 48 45 39 38 33 41 36 41 43 49 50 39 38 46 45 45 45 47 46 46 48 49
51 50 50 50 49 49 49 49 49 50 49 49 50 52 52 52 52 52 50 55 48 45 36 52 62 58 64 61 56 55 56 54 54 45 39 38 36 45 39 45 42 49 50 46 40 44 46 46 47 47 48 48 48 50
49 49 49 49 49 49 49 49 49 49 49 50 51 51 51 51 51 52 53 55 53 43 39 44 54 62 62 61 56 55 52 50 46 40 39 37 41 42 43 44 48 57 49 39 37 44 43 45 49 48 46 46 47 48
49 49 49 49 49 49 49 49 49 49 50 50 51 52 52 52 51 49 45 50 52 47 38 35 59 57 59 58 55 53 51 48 43 41 41 43 50 43 38 41 56 58 58 55 44 51 52 52 52 48 45 47 48 48
48 48 48 48 48 49 49 49 49 50 50 51 51 51 51 51 50 44 50 47 51 48 39 36 44 59 59 55 52 50 50 49 45 41 41 44 48 45 41 44 57 59 59 57 56 54 51 52 48 47 46 48 48 50
48 47 48 48 48 48 48 49 49 49 50 50 51 51 51 50 49 44 53 52 50 43 42 36 41 53 59 49 45 51 45 46 44 43 46 48 52 50 40 54 58 59 59 58 57 55 54 55 52 49 48 47 46 46
47 47 48 48 48 48 48 48 49 50 50 50 50 50 52 48 43 48 53 52 48 43 37 38 37 39 60 56 55 47 46 39 47 41 43 53 50 43 51 55 57 58 56 56 60 58 55 52 49 48 47 46 44 45
47 47 47 48 47 48 48 49 49 49 50 50 54 54 48 46 52 54 47 42 41 41 40 37 49 42 55 54 55 52 47 41 39 47 53 45 46 56 58 59 62 60 59 59 55 52 52 50 48 47 47 47 46 46
47 47 47 47 47 47 48 49 49 49 51 52 48 49 53 54 55 47 42 39 38 36 39 42 46 42 54 43 45 57 48 49 41 47 46 44 45 54 58 60 62 61 61 60 59 59 56 53 50 48 48 49 47 46
46 47 47 47 47 47 48 48 49 50 46 46 46 49 49 46 47 42 40 46 43 43 51 49 50 46 49 56 48 48 39 49 41 55 48 43 55 58 59 60 61 60 61 60 61 58 57 56 53 51 51 48 48 47
46 47 47 48 48 48 48 48 48 48 49 52 40 37 39 44 33 35 35 39 39 50 50 44 41 41 45 51 48 43 41 43 55 46 46 52 59 61 61 62 60 63 62 60 60 61 59 57 56 53 50 49 49 47
46 47 47 47 48 48 48 48 48 49 48 44 39 32 36 37 39 45 46 43 46 48 44 44 42 39 42 41 42 40 49 49 41 39 44 57 59 60 62 63 62 60 61 60 60 60 59 57 56 54 53 49 46 45
46 47 47 48 47 47 47 47 48 51 47 40 42 31 39 48 50 48 48 47 47 51 48 44 47 40 34 35 39 45 42 37 41 41 51 58 59 61 61 61 61 61 62 61 61 60 59 58 55 53 52 50 46 45
46 46 50 47 47 46 47 49 51 44 40 41 41 38 46 45 46 44 41 40 48 50 52 52 44 38 37 38 37 40 39 35 41 49 58 59 58 59 59 62 62 63 62 61 61 60 59 57 55 54 53 51 47 45
45 50 46 46 46 47 48 46 43 37 37 38 42 48 47 46 45 48 48 46 53 50 46 48 39 36 38 34 35 43 39 47 55 56 60 59 59 59 61 62 62 62 62 61 60 60 58 59 59 56 51 50 48 45
49 52 46 46 47 49 51 49 42 39 34 44 41 46 47 47 47 50 52 55 52 50 49 45 48 43 39 36 41 44 48 53 56 57 59 60 61 61 63 63 63 63 61 61 61 60 60 59 58 57 55 54 54 50
48 48 46 46 47 44 42 45 47 38 43 46 48 49 49 48 52 52 53 54 54 54 49 47 44 43 40 41 40 45 47 49 50 55 58 60 62 62 63 64 64 62 62 61 60 62 61 59 59 60 60 59 55 55
45 45 45 46 47 46 38 45 50 41 39 45 48 46 46 48 52 52 52 53 52 50 44 40 38 38 39 41 43 44 45 49 47 48 56 58 64 62 61 64 64 64 63 61 62 54 61 59 61 61 60 57 56 54
46 47 47 49 49 47 44 45 44 46 45 43 48 47 46 50 47 46 48 53 49 41 39 40 39 41 45 46 47 46 46 46 47 53 54 55 61 62 63 62 66 66 64 63 61 59 56 61 61 60 60 57 55 54
49 45 49 48 44 43 42 49 44 46 41 44 46 46 42 42 45 46 46 37 36 35 37 37 38 40 41 43 44 45 46 47 49 53 50 51 57 59 58 61 63 64 65 65 65 63 63 62 62 61 59 55 54 55
44 46 47 43 37 37 37 50 40 43 37 40 44 41 42 42 44 48 34 35 35 37 37 37 38 40 41 44 45 45 47 46 46 47 48 51 58 61 63 64 63 64 64 65 67 66 63 51 54 60 58 57 55 52
42 42 37 37 38 34 42 40 44 40 40 39 39 37 38 36 42 39 34 34 36 40 38 36 37 37 40 41 39 40 41 43 43 44 46 45 48 55 60 63 64 64 66 68 66 64 63 60 54 59 59 57 56 55
33 31 35 27 39 33 33 35 35 38 34 38 35 35 36 39 34 34 32 34 36 36 35 36 36 36 35 37 38 38 40 39 37 37 44 45 45 53 58 61 60 60 65 64 63 63 61 61 60 59 58 58 57 55
27 32 31 36 37 34 37 31 33 34 36 34 37 42 43 36 32 28 32 33 33 34 33 33 33 34 35 35 35 35 36 37 37 38 41 43 41 41 45 54 56 56 61 64 65 63 61 60 59 58 57 54 42 54
27 30 40 46 44 43 39 42 43 39 33 34 39 38 37 28 27 31 36 36 33 35 36 37 35 35 35 35 36 37 38 37 36 38 43 42 42 41 40 39 40 43 54 59 64 64 62 60 59 58 58 58 56 56
38 39 35 39 39 41 32 34 34 34 39 45 42 33 28 27 28 34 35 37 37 39 39 40 39 37 37 37 39 39 39 41 39 40 42 41 40 40 40 42 43 37 48 57 61 64 64 62 60 58 58 57 56 58
36 41 41 34 35 35 35 36 39 45 48 45 38 35 33 36 37 34 37 39 40 39 37 37 38 40 43 44 43 41 39 38 35 32 32 33 33 35 38 39 40 42 44 49 38 41 59 61 61 59 55 55 57 58
38 44 36 35 32 35 41 45 44 45 45 45 45 40 36 34 36 41 40 39 36 36 37 38 39 37 37 37 38 40 40 38 36 32 31 31 31 36 39 39 41 41 41 43 52 58 36 51 46 53 52 52 54 52
44 42 36 37 38 46 48 50 49 48 39 37 38 37 36 34 37 40 37 39 39 39 37 36 38 37 35 34 34 34 36 39 38 38 36 37 38 38 38 40 41 43 43 42 43 45 46 50 53 53 53 51 51 46
41 37 37 33 38 47 49 47 46 41 36 34 33 35 34 34 30 33 35 36 35 33 32 34 33 34 39 39 39 38 34 39 38 37 36 36 36 37 40 40 42 41 43 42 40 41 43 44 44 46 46 47 45 41
39 40 39 37 37 37 43 41 39 34 34 33 33 34 33 31 26 31 38 37 34 33 33 34 37 40 40 39 39 40 38 41 37 33 32 32 32 32 36 39 41 40 39 37 38 38 35 34 34 36 36 38 38 37